Torna al catalogo

WEINA 1A

AttivoComunicazioniVLEO
NORAD 43169·PAYLOAD·🇨🇳 China

Lanciato Jan 25, 2018 da Xichang Satellite Launch Center

Loading…

Prossimi Passaggi (prossime 24 ore)

TLE

AggiornatoSource: Space-Track

Epoca: Sep 14, 2026, 13:59 UTC

1 43169U 18011A   26257.58269314  .00001609  00000-0  12482-3 0  9990
2 43169  34.9967 338.3296 0001978 107.5245 252.5679 15.01291330471560

Traccia WEINA 1A in tempo reale con AllMySat

Download on the App Store